TimeEST,TemperatureF,Dew PointF,Humidity,Sea Level PressureIn,VisibilityMPH,Wind Direction,Wind SpeedMPH,Gust SpeedMPH,PrecipitationIn,Events,Conditions,WindDirDegrees,DateUTC
12:54 AM,51.1,28.0,41,30.30,10.0,South,8.1,-,N/A,,Clear,180,2012-11-11 05:54:00
1:54 AM,51.1,28.9,43,30.30,10.0,SSW,5.8,-,N/A,,Clear,200,2012-11-11 06:54:00
2:54 AM,51.1,28.9,43,30.30,10.0,SSW,6.9,-,N/A,,Clear,200,2012-11-11 07:54:00
3:54 AM,50.0,30.9,48,30.31,10.0,South,8.1,-,N/A,,Clear,190,2012-11-11 08:54:00
4:54 AM,52.0,30.9,45,30.33,10.0,SSW,5.8,-,N/A,,Clear,200,2012-11-11 09:54:00
5:54 AM,52.0,30.9,45,30.35,10.0,SSW,4.6,-,N/A,,Clear,210,2012-11-11 10:54:00
6:54 AM,53.1,30.9,43,30.37,10.0,South,4.6,-,N/A,,Clear,180,2012-11-11 11:54:00
7:54 AM,50.0,34.0,54,30.40,10.0,SSW,3.5,-,N/A,,Clear,200,2012-11-11 12:54:00
9:54 AM,61.0,34.0,36,30.40,10.0,SW,4.6,-,N/A,,Clear,230,2012-11-11 14:54:00
10:54 AM,62.1,33.1,34,30.39,10.0,WSW,6.9,-,N/A,,Clear,250,2012-11-11 15:54:00
1:54 PM,66.9,30.9,26,30.30,10.0,South,8.1,-,N/A,,Clear,180,2012-11-11 18:54:00
2:54 PM,66.0,33.1,29,30.29,10.0,SE,9.2,-,N/A,,Clear,140,2012-11-11 19:54:00
3:54 PM,62.1,34.0,35,30.30,10.0,SE,12.7,-,N/A,,Clear,140,2012-11-11 20:54:00
4:54 PM,57.9,34.0,41,30.32,10.0,SE,10.4,-,N/A,,Clear,140,2012-11-11 21:54:00
5:54 PM,55.9,33.1,42,30.33,10.0,SE,11.5,18.4,N/A,,Clear,140,2012-11-11 22:54:00
6:54 PM,55.0,34.0,45,30.32,10.0,SE,12.7,19.6,N/A,,Clear,140,2012-11-11 23:54:00
7:54 PM,55.0,35.1,47,30.32,10.0,SE,15.0,23.0,N/A,,Clear,140,2012-11-12 00:54:00
8:54 PM,54.0,35.1,49,30.33,10.0,SSE,12.7,23.0,N/A,,Clear,150,2012-11-12 01:54:00
9:54 PM,54.0,35.1,49,30.32,10.0,South,9.2,-,N/A,,Clear,170,2012-11-12 02:54:00
10:54 PM,53.1,34.0,48,30.30,10.0,South,11.5,-,N/A,,Clear,170,2012-11-12 03:54:00
11:54 PM,54.0,35.1,49,30.30,10.0,SSW,9.2,16.1,N/A,,Clear,200,2012-11-12 04:54:00